• în România
  • Lista ţărilor
  • Pe 7 zile
  • Temperatura apei
  • Hartă satelitară
  • Meteo pe hartă
  • Widget-uri
  • user-avatar
    Intrare

    Meteo pe oră la Trogir

    Astăzi, 24 Septembrie, Luni

    Timp Temperatura Precipitaţii Vânt Presiune Umiditate
    00:00 +23°C° 0 mm 5 m/s 758 mmHg 77%
    01:00 +23°C° 0 mm 5 m/s 757 mmHg 77%
    02:00 +23°C° 0 mm 5 m/s 757 mmHg 77%
    03:00 +23°C° 0 mm 5 m/s 757 mmHg 78%
    04:00 +23°C° 0 mm 5 m/s 757 mmHg 79%
    05:00 +23°C° 0 mm 5 m/s 757 mmHg 79%
    06:00 +25°C° 0 mm 4 m/s 757 mmHg 79%
    07:00 +25°C° 0 mm 4 m/s 758 mmHg 78%
    08:00 +23°C° 1 mm 5 m/s 759 mmHg 76%
    09:00 +23°C° 1 mm 6 m/s 760 mmHg 74%
    10:00 +22°C° 1 mm 7 m/s 761 mmHg 72%
    11:00 +21°C° 0.6 mm 9 m/s 761 mmHg 69%
    12:00 +18°C° 0.6 mm 11 m/s 762 mmHg 67%
    13:00 +15°C° 0.6 mm 13 m/s 763 mmHg 64%
    14:00 +15°C° 0 mm 12 m/s 763 mmHg 61%
    15:00 +16°C° 0 mm 11 m/s 763 mmHg 58%
    16:00 +16°C° 0 mm 10 m/s 763 mmHg 55%
    17:00 +16°C° 0 mm 9 m/s 764 mmHg 52%
    18:00 +16°C° 0 mm 8 m/s 765 mmHg 49%
    19:00 +16°C° 0 mm 7 m/s 765 mmHg 46%
    20:00 +15°C° 0 mm 7 m/s 766 mmHg 48%
    21:00 +15°C° 0 mm 7 m/s 766 mmHg 49%
    22:00 +14°C° 0 mm 7 m/s 767 mmHg 50%
    23:00 +14°C° 0 mm 7 m/s 767 mmHg 51%

    Mâine, 25 Septembrie, Marţi

    Timp Temperatura Precipitaţii Vânt Presiune Umiditate
    00:00 +14°C° 0 mm 7 m/s 767 mmHg 52%
    01:00 +12°C° 0 mm 7 m/s 768 mmHg 53%
    02:00 +12°C° 0 mm 7 m/s 768 mmHg 53%
    03:00 +12°C° 0 mm 7 m/s 768 mmHg 53%
    04:00 +12°C° 0 mm 7 m/s 768 mmHg 53%
    05:00 +12°C° 0 mm 7 m/s 768 mmHg 54%
    06:00 +12°C° 0 mm 7 m/s 769 mmHg 54%
    07:00 +12°C° 0 mm 7 m/s 769 mmHg 54%
    08:00 +14°C° 0 mm 7 m/s 769 mmHg 50%
    09:00 +15°C° 0 mm 7 m/s 769 mmHg 46%
    10:00 +17°C° 0 mm 7 m/s 770 mmHg 42%
    11:00 +17°C° 0 mm 7 m/s 769 mmHg 40%
    12:00 +18°C° 0 mm 7 m/s 769 mmHg 39%
    13:00 +20°C° 0 mm 6 m/s 769 mmHg 37%
    14:00 +19°C° 0 mm 6 m/s 769 mmHg 38%
    15:00 +19°C° 0 mm 6 m/s 769 mmHg 39%
    16:00 +19°C° 0 mm 6 m/s 769 mmHg 40%
    17:00 +17°C° 0 mm 6 m/s 769 mmHg 43%
    18:00 +15°C° 0 mm 6 m/s 770 mmHg 46%
    19:00 +14°C° 0 mm 7 m/s 770 mmHg 49%
    20:00 +13°C° 0 mm 6 m/s 770 mmHg 50%
    21:00 +13°C° 0 mm 6 m/s 771 mmHg 50%
    22:00 +11°C° 0 mm 6 m/s 771 mmHg 51%
    23:00 +11°C° 0 mm 6 m/s 772 mmHg 51%

    Poimâine, 26 Septembrie, Miercuri

    Timp Temperatura Precipitaţii Vânt Presiune Umiditate
    00:00 +11°C° 0 mm 6 m/s 772 mmHg 52%
    01:00 +10°C° 0 mm 5 m/s 772 mmHg 52%
    02:00 +10°C° 0 mm 5 m/s 772 mmHg 54%
    03:00 +10°C° 0 mm 5 m/s 772 mmHg 55%
    04:00 +9°C° 0 mm 5 m/s 772 mmHg 57%
    05:00 +9°C° 0 mm 5 m/s 772 mmHg 57%
    06:00 +9°C° 0 mm 5 m/s 772 mmHg 58%
    07:00 +10°C° 0 mm 5 m/s 773 mmHg 59%
    08:00 +13°C° 0 mm 5 m/s 773 mmHg 51%
    09:00 +14°C° 0 mm 5 m/s 773 mmHg 43%
    10:00 +16°C° 0 mm 5 m/s 773 mmHg 35%
    11:00 +19°C° 0 mm 4 m/s 773 mmHg 32%
    12:00 +20°C° 0 mm 3 m/s 773 mmHg 29%
    13:00 +21°C° 0 mm 3 m/s 773 mmHg 26%
    14:00 +21°C° 0 mm 3 m/s 772 mmHg 28%
    15:00 +21°C° 0 mm 3 m/s 772 mmHg 29%
    16:00 +21°C° 0 mm 3 m/s 772 mmHg 31%
    17:00 +20°C° 0 mm 3 m/s 772 mmHg 35%
    18:00 +18°C° 0 mm 3 m/s 772 mmHg 39%
    19:00 +17°C° 0 mm 3 m/s 772 mmHg 44%
    20:00 +16°C° 0 mm 3 m/s 772 mmHg 46%
    21:00 +14°C° 0 mm 3 m/s 772 mmHg 48%
    22:00 +14°C° 0 mm 3 m/s 773 mmHg 50%
    23:00 +13°C° 0 mm 3 m/s 772 mmHg 50%

    27 Septembrie, Joi

    Timp Temperatura Precipitaţii Vânt Presiune Umiditate
    00:00 +13°C° 0 mm 3 m/s 772 mmHg 50%
    01:00 +13°C° 0 mm 3 m/s 772 mmHg 49%
    02:00 +13°C° 0 mm 3 m/s 772 mmHg 47%
    03:00 +13°C° 0 mm 3 m/s 771 mmHg 46%
    04:00 +13°C° 0 mm 3 m/s 771 mmHg 44%
    05:00 +13°C° 0 mm 3 m/s 771 mmHg 43%
    06:00 +14°C° 0 mm 3 m/s 771 mmHg 43%
    07:00 +14°C° 0 mm 3 m/s 770 mmHg 42%
    08:00 +17°C° 0 mm 2 m/s 770 mmHg 37%
    09:00 +19°C° 0 mm 2 m/s 770 mmHg 32%
    10:00 +21°C° 0 mm 2 m/s 770 mmHg 28%
    11:00 +24°C° 0 mm 2 m/s 769 mmHg 27%
    12:00 +25°C° 0 mm 2 m/s 769 mmHg 26%
    13:00 +26°C° 0 mm 3 m/s 768 mmHg 25%
    14:00 +26°C° 0 mm 3 m/s 768 mmHg 28%
    15:00 +26°C° 0 mm 4 m/s 768 mmHg 32%
    16:00 +26°C° 0 mm 4 m/s 767 mmHg 35%
    17:00 +23°C° 0 mm 4 m/s 767 mmHg 37%
    18:00 +22°C° 0 mm 4 m/s 767 mmHg 39%
    19:00 +20°C° 0 mm 4 m/s 767 mmHg 42%
    20:00 +19°C° 0 mm 4 m/s 767 mmHg 42%
    21:00 +19°C° 0 mm 4 m/s 766 mmHg 43%
    22:00 +18°C° 0 mm 4 m/s 766 mmHg 43%
    23:00 +18°C° 0 mm 4 m/s 766 mmHg 42%

    28 Septembrie, Vineri

    Timp Temperatura Precipitaţii Vânt Presiune Umiditate
    00:00 +17°C° 0 mm 3 m/s 765 mmHg 42%
    01:00 +17°C° 0 mm 3 m/s 765 mmHg 41%
    02:00 +17°C° 0 mm 3 m/s 765 mmHg 40%
    03:00 +17°C° 0 mm 3 m/s 764 mmHg 39%
    04:00 +17°C° 0 mm 3 m/s 764 mmHg 38%
    05:00 +17°C° 0 mm 3 m/s 763 mmHg 39%
    06:00 +17°C° 0 mm 2 m/s 763 mmHg 40%
    07:00 +18°C° 0 mm 2 m/s 763 mmHg 40%
    08:00 +20°C° 0 mm 2 m/s 763 mmHg 37%
    09:00 +23°C° 0 mm 2 m/s 762 mmHg 34%
    10:00 +25°C° 0 mm 1 m/s 762 mmHg 30%
    11:00 +25°C° 0 mm 1 m/s 762 mmHg 31%
    12:00 +26°C° 0 mm 2 m/s 761 mmHg 32%
    13:00 +27°C° 0 mm 2 m/s 761 mmHg 34%
    14:00 +26°C° 0 mm 2 m/s 760 mmHg 36%
    15:00 +26°C° 0 mm 2 m/s 760 mmHg 39%
    16:00 +26°C° 0 mm 2 m/s 760 mmHg 42%
    17:00 +24°C° 0 mm 2 m/s 760 mmHg 47%
    18:00 +23°C° 0 mm 1 m/s 760 mmHg 51%
    19:00 +21°C° 0 mm 1 m/s 760 mmHg 56%
    20:00 +21°C° 0 mm 1 m/s 760 mmHg 56%
    21:00 +19°C° 0 mm 2 m/s 760 mmHg 56%
    22:00 +19°C° 0 mm 2 m/s 760 mmHg 55%
    23:00 +19°C° 0 mm 2 m/s 759 mmHg 55%

    29 Septembrie, Sâmbătă

    Timp Temperatura Precipitaţii Vânt Presiune Umiditate
    00:00 +19°C° 0 mm 2 m/s 759 mmHg 54%
    01:00 +19°C° 0 mm 2 m/s 759 mmHg 54%
    02:00 +18°C° 0 mm 2 m/s 759 mmHg 53%
    03:00 +18°C° 0 mm 2 m/s 759 mmHg 53%
    04:00 +18°C° 0 mm 2 m/s 759 mmHg 53%
    05:00 +18°C° 0 mm 3 m/s 759 mmHg 53%
    06:00 +18°C° 0 mm 3 m/s 759 mmHg 52%
    07:00 +18°C° 0 mm 3 m/s 759 mmHg 52%
    08:00 +20°C° 0 mm 3 m/s 760 mmHg 47%
    09:00 +22°C° 0 mm 4 m/s 760 mmHg 42%
    10:00 +25°C° 0 mm 4 m/s 760 mmHg 37%
    11:00 +26°C° 0 mm 4 m/s 760 mmHg 38%
    12:00 +26°C° 0 mm 4 m/s 760 mmHg 38%
    13:00 +27°C° 0 mm 4 m/s 759 mmHg 39%
    14:00 +26°C° 0 mm 5 m/s 760 mmHg 42%
    15:00 +25°C° 0 mm 5 m/s 760 mmHg 44%
    16:00 +25°C° 0 mm 5 m/s 760 mmHg 47%
    17:00 +22°C° 0 mm 6 m/s 760 mmHg 50%
    18:00 +21°C° 0 mm 6 m/s 761 mmHg 53%
    19:00 +18°C° 0 mm 7 m/s 761 mmHg 55%
    20:00 +17°C° 0 mm 7 m/s 761 mmHg 55%
    21:00 +16°C° 0 mm 6 m/s 762 mmHg 54%
    22:00 +16°C° 0 mm 6 m/s 762 mmHg 54%
    23:00 +15°C° 0 mm 6 m/s 762 mmHg 54%
    Arată mai mult